AVA225 SAWH-SAVC

Flight info

Callsign AVA225
Flight time N/A
Altitude 36000
Route GRA2B GRA UW42 GAL/N0458F350 UP664 BODUN BODUN1U
Aircraft A320/M-SDE3FGHIRWY/LB1

Departure

Time 2026-05-01 15:12
Airport Ushuaia - Malvinas Argentinas International Airport (SAWH)

Arrival

Time N/A
Airport General Enrique Mosconi International Airport (SAVC)
Time Latitude Longitude Altitude Speed Heading
2026-05-01 14:31 -54.84024 -68.31177 83 ft 0 kts 349°
2026-05-01 15:01 -54.84037 -68.31172 83 ft 4 kts 344°
2026-05-01 15:01 -54.84063 -68.31160 83 ft 4 kts 356°
2026-05-01 15:02 -54.84084 -68.31161 86 ft 4 kts 29°
2026-05-01 15:02 -54.84090 -68.31166 85 ft 4 kts 57°
2026-05-01 15:02 -54.84096 -68.31222 83 ft 0 kts 85°
2026-05-01 15:06 -54.84095 -68.31207 87 ft 4 kts 84°
2026-05-01 15:07 -54.84092 -68.31126 85 ft 10 kts 88°
2026-05-01 15:07 -54.84094 -68.31029 86 ft 7 kts 103°
2026-05-01 15:07 -54.84149 -68.30982 85 ft 12 kts 174°
2026-05-01 15:07 -54.84250 -68.30967 85 ft 16 kts 176°
2026-05-01 15:08 -54.84343 -68.30951 86 ft 15 kts 163°
2026-05-01 15:08 -54.84376 -68.30765 84 ft 21 kts 88°
2026-05-01 15:08 -54.84366 -68.30481 81 ft 26 kts 86°
2026-05-01 15:08 -54.84353 -68.30135 85 ft 31 kts 85°
2026-05-01 15:09 -54.84338 -68.29749 88 ft 33 kts 85°
2026-05-01 15:09 -54.84322 -68.29353 87 ft 33 kts 86°
2026-05-01 15:09 -54.84306 -68.28936 83 ft 36 kts 86°
2026-05-01 15:09 -54.84289 -68.28492 81 ft 38 kts 86°
2026-05-01 15:10 -54.84271 -68.28032 83 ft 38 kts 86°
2026-05-01 15:10 -54.84211 -68.27390 83 ft 21 kts 84°
2026-05-01 15:10 -54.84207 -68.27252 87 ft 6 kts 92°
2026-05-01 15:11 -54.84235 -68.27246 84 ft 6 kts 251°
2026-05-01 15:11 -54.84243 -68.27316 85 ft 0 kts 264°
2026-05-01 15:12 -54.84258 -68.27677 86 ft 67 kts 266°
2026-05-01 15:12 -54.84407 -68.30526 616 ft 137 kts 265°
2026-05-01 15:12 -54.84397 -68.32204 1313 ft 143 kts 264°
2026-05-01 15:13 -54.85767 -68.37102 2803 ft 167 kts 209°
2026-05-01 15:14 -54.88063 -68.37264 4046 ft 178 kts 161°
2026-05-01 15:14 -54.89049 -68.35878 4649 ft 192 kts 133°
2026-05-01 15:14 -54.89313 -68.31081 5765 ft 221 kts 81°
2026-05-01 15:15 -54.88477 -68.25915 6877 ft 224 kts 81°
2026-05-01 15:15 -54.87638 -68.20674 7961 ft 227 kts 81°
2026-05-01 15:16 -54.86798 -68.15333 8925 ft 235 kts 81°
2026-05-01 15:16 -54.86713 -68.09419 9268 ft 265 kts 112°
2026-05-01 15:17 -54.87674 -68.02777 10045 ft 307 kts 100°
2026-05-01 15:18 -54.83706 -67.93065 10824 ft 389 kts 18°
2026-05-01 15:18 -54.81062 -67.92023 11491 ft 392 kts
2026-05-01 15:19 -54.80161 -67.91854 11737 ft 393 kts
2026-05-01 15:19 -54.67496 -67.91354 14757 ft 404 kts
2026-05-01 15:19 -54.64690 -67.90988 15357 ft 407 kts
2026-05-01 15:20 -54.59024 -67.90067 16475 ft 413 kts
2026-05-01 15:20 -54.56166 -67.89588 17020 ft 415 kts
2026-05-01 15:20 -54.53289 -67.89123 17547 ft 417 kts
2026-05-01 15:21 -54.50397 -67.88669 18070 ft 419 kts
2026-05-01 15:21 -54.47492 -67.88158 18562 ft 422 kts
2026-05-01 15:21 -54.44571 -67.87589 19039 ft 425 kts
2026-05-01 15:21 -54.41633 -67.86987 19510 ft 428 kts
2026-05-01 15:22 -54.35697 -67.85762 20386 ft 433 kts
2026-05-01 15:22 -54.32701 -67.85163 20837 ft 435 kts
2026-05-01 15:22 -54.29690 -67.84577 21270 ft 438 kts
2026-05-01 15:23 -54.26658 -67.83994 21672 ft 441 kts
2026-05-01 15:23 -54.23610 -67.83409 22083 ft 443 kts
2026-05-01 15:23 -54.20559 -67.82827 22469 ft 445 kts
2026-05-01 15:23 -54.17479 -67.82240 22845 ft 447 kts
2026-05-01 15:24 -54.14382 -67.81649 23207 ft 450 kts
2026-05-01 15:24 -54.11269 -67.81049 23571 ft 453 kts
2026-05-01 15:24 -54.08139 -67.80442 23925 ft 455 kts
2026-05-01 15:24 -54.05006 -67.79834 24268 ft 457 kts
2026-05-01 15:25 -54.01860 -67.79223 24599 ft 459 kts
2026-05-01 15:25 -53.98685 -67.78611 24920 ft 462 kts
2026-05-01 15:25 -53.95486 -67.78002 25221 ft 465 kts
2026-05-01 15:25 -53.92269 -67.77388 25521 ft 467 kts
2026-05-01 15:26 -53.89038 -67.76775 25816 ft 470 kts
2026-05-01 15:26 -53.85786 -67.76164 26102 ft 472 kts
2026-05-01 15:26 -53.82521 -67.75617 26373 ft 473 kts
2026-05-01 15:26 -53.79272 -67.75710 26629 ft 473 kts 352°
2026-05-01 15:27 -53.76037 -67.76583 26869 ft 471 kts 343°
2026-05-01 15:27 -53.72915 -67.78211 27100 ft 470 kts 335°
2026-05-01 15:27 -53.69934 -67.80439 27346 ft 470 kts 332°
2026-05-01 15:28 -53.63968 -67.85040 27899 ft 473 kts 332°
2026-05-01 15:28 -53.60980 -67.87329 28245 ft 473 kts 332°
2026-05-01 15:28 -53.57994 -67.89607 28574 ft 472 kts 332°
2026-05-01 15:29 -53.52021 -67.94160 29229 ft 472 kts 332°
2026-05-01 15:29 -53.49038 -67.96434 29550 ft 472 kts 332°
2026-05-01 15:29 -53.43075 -68.00975 30186 ft 471 kts 332°
2026-05-01 15:30 -53.37108 -68.05496 30812 ft 471 kts 332°
2026-05-01 15:31 -53.25265 -68.14434 32220 ft 465 kts 332°
2026-05-01 15:31 -53.19394 -68.18849 32882 ft 463 kts 333°
2026-05-01 15:32 -53.13543 -68.23228 33530 ft 461 kts 333°
2026-05-01 15:32 -53.07710 -68.27578 34127 ft 459 kts 333°
2026-05-01 15:33 -52.98983 -68.34077 34890 ft 459 kts 333°
2026-05-01 15:34 -52.90249 -68.40557 35566 ft 460 kts 333°